TimeCST,TemperatureF,Dew PointF,Humidity,Sea Level PressureIn,VisibilityMPH,Wind Direction,Wind SpeedMPH,Gust SpeedMPH,PrecipitationIn,Events,Conditions,WindDirDegrees,DateUTC
12:15 AM,9.1,5.9,87,30.30,10.0,Calm,Calm,-,N/A,,Clear,0,2013-02-16 06:15:00
12:35 AM,7.9,4.1,85,30.30,10.0,Calm,Calm,-,N/A,,Clear,0,2013-02-16 06:35:00
12:55 AM,8.4,4.8,85,30.29,10.0,Calm,Calm,-,N/A,,Clear,0,2013-02-16 06:55:00
1:15 AM,10.4,7.2,87,30.29,10.0,Calm,Calm,-,N/A,,Clear,0,2013-02-16 07:15:00
1:35 AM,11.1,7.7,86,30.27,10.0,Calm,Calm,-,N/A,,Clear,0,2013-02-16 07:35:00
1:55 AM,12.4,8.8,85,30.27,10.0,Calm,Calm,-,N/A,,Clear,0,2013-02-16 07:55:00
2:15 AM,12.7,9.3,86,30.27,10.0,Calm,Calm,-,N/A,,Clear,0,2013-02-16 08:15:00
2:35 AM,13.1,9.5,86,30.25,10.0,Calm,Calm,-,N/A,,Clear,0,2013-02-16 08:35:00
2:55 AM,13.8,10.2,86,30.25,10.0,Calm,Calm,-,N/A,,Clear,0,2013-02-16 08:55:00
3:15 AM,14.4,10.4,84,30.24,10.0,Calm,Calm,-,N/A,,Mostly Cloudy,0,2013-02-16 09:15:00
3:35 AM,15.1,10.9,84,30.23,10.0,Calm,Calm,-,N/A,,Scattered Clouds,0,2013-02-16 09:35:00
3:55 AM,14.0,10.2,85,30.21,10.0,Calm,Calm,-,N/A,,Mostly Cloudy,0,2013-02-16 09:55:00
4:15 AM,15.6,11.7,84,30.20,10.0,SE,3.5,-,N/A,,Mostly Cloudy,130,2013-02-16 10:15:00
4:35 AM,14.9,11.3,86,30.19,10.0,Calm,Calm,-,N/A,,Overcast,0,2013-02-16 10:35:00
5:15 AM,18.3,14.0,83,30.18,10.0,SE,3.5,-,N/A,,Overcast,140,2013-02-16 11:15:00
5:35 AM,19.2,14.5,82,30.17,10.0,SSW,4.6,-,N/A,,Overcast,200,2013-02-16 11:35:00
5:55 AM,19.6,15.3,83,30.16,10.0,South,5.8,-,N/A,,Overcast,180,2013-02-16 11:55:00
6:15 AM,19.9,15.4,83,30.15,10.0,South,4.6,-,N/A,,Overcast,170,2013-02-16 12:15:00
6:35 AM,20.7,15.6,81,30.14,10.0,South,3.5,-,N/A,,Overcast,170,2013-02-16 12:35:00
6:55 AM,20.8,16.0,81,30.13,10.0,SE,4.6,-,N/A,,Overcast,130,2013-02-16 12:55:00
7:15 AM,21.0,16.2,81,30.12,10.0,SSE,3.5,-,N/A,,Overcast,160,2013-02-16 13:15:00
7:35 AM,21.9,16.5,80,30.12,7.0,South,5.8,-,N/A,,Overcast,190,2013-02-16 13:35:00
7:55 AM,22.5,18.0,83,30.11,4.0,South,8.1,-,N/A,Snow,Light Snow,180,2013-02-16 13:55:00
8:15 AM,23.0,19.0,85,30.10,5.0,South,8.1,-,N/A,Snow,Light Snow,190,2013-02-16 14:15:00
8:35 AM,23.9,20.1,85,30.10,5.0,South,5.8,-,N/A,Snow,Light Snow,170,2013-02-16 14:35:00
8:55 AM,24.3,20.5,85,30.08,5.0,South,10.4,-,N/A,Snow,Light Snow,190,2013-02-16 14:55:00
9:15 AM,24.8,21.0,86,30.08,5.0,SSW,11.5,16.1,N/A,Snow,Light Snow,200,2013-02-16 15:15:00
9:35 AM,25.3,21.6,86,30.07,4.0,SSW,12.7,-,N/A,Snow,Light Snow,200,2013-02-16 15:35:00
12:15 PM,32.0,24.4,74,30.02,10.0,SSW,12.7,-,N/A,,Overcast,210,2013-02-16 18:15:00
12:35 PM,32.7,24.8,73,30.01,10.0,SSW,9.2,-,N/A,,Overcast,200,2013-02-16 18:35:00
12:55 PM,34.7,25.5,69,30.00,10.0,SSW,8.1,-,N/A,,Overcast,210,2013-02-16 18:55:00
1:15 PM,36.1,25.5,65,29.99,10.0,SSW,8.1,-,N/A,,Overcast,210,2013-02-16 19:15:00
1:35 PM,37.6,26.4,64,29.98,10.0,SW,9.2,-,N/A,,Overcast,220,2013-02-16 19:35:00
1:55 PM,38.3,26.4,62,29.98,10.0,WSW,6.9,-,N/A,,Overcast,240,2013-02-16 19:55:00
2:15 PM,40.1,27.1,60,29.97,10.0,West,5.8,-,N/A,,Overcast,270,2013-02-16 20:15:00
2:35 PM,39.7,27.1,61,29.97,10.0,West,4.6,-,N/A,,Overcast,260,2013-02-16 20:35:00
2:55 PM,40.5,27.5,60,29.96,10.0,West,4.6,-,N/A,,Overcast,280,2013-02-16 20:55:00
3:15 PM,41.2,27.9,59,29.96,10.0,WNW,3.5,-,N/A,,Overcast,300,2013-02-16 21:15:00
3:35 PM,43.3,28.6,56,29.96,10.0,Calm,Calm,-,N/A,,Overcast,0,2013-02-16 21:35:00
3:55 PM,43.3,28.8,56,29.95,10.0,Calm,Calm,-,N/A,,Mostly Cloudy,0,2013-02-16 21:55:00
4:15 PM,43.7,28.6,55,29.95,10.0,Calm,Calm,-,N/A,,Scattered Clouds,0,2013-02-16 22:15:00
4:35 PM,43.7,28.8,56,29.95,10.0,Calm,Calm,-,N/A,,Scattered Clouds,0,2013-02-16 22:35:00
4:55 PM,43.7,28.8,56,29.95,10.0,Calm,Calm,-,N/A,,Scattered Clouds,0,2013-02-16 22:55:00
5:15 PM,43.3,28.8,56,29.95,10.0,Calm,Calm,-,N/A,,Scattered Clouds,0,2013-02-16 23:15:00
5:35 PM,42.1,28.2,58,29.95,10.0,ENE,4.6,-,N/A,,Clear,70,2013-02-16 23:35:00
5:55 PM,39.7,27.5,62,29.96,10.0,ENE,5.8,-,N/A,,Scattered Clouds,60,2013-02-16 23:55:00
6:15 PM,35.8,26.2,68,29.96,10.0,East,5.8,-,N/A,,Scattered Clouds,80,2013-02-17 00:15:00
6:35 PM,34.3,25.9,71,29.96,10.0,SE,5.8,-,N/A,,Clear,140,2013-02-17 00:35:00
6:55 PM,32.2,24.8,74,29.96,10.0,Calm,Calm,-,N/A,,Scattered Clouds,0,2013-02-17 00:55:00
7:15 PM,31.8,24.8,75,29.96,10.0,Calm,Calm,-,N/A,,Scattered Clouds,0,2013-02-17 01:15:00
7:35 PM,31.5,24.6,76,29.97,10.0,SE,3.5,-,N/A,,Clear,140,2013-02-17 01:35:00
7:55 PM,29.5,23.7,79,29.96,10.0,Calm,Calm,-,N/A,,Clear,0,2013-02-17 01:55:00
8:15 PM,29.1,23.7,80,29.96,10.0,Calm,Calm,-,N/A,,Clear,0,2013-02-17 02:15:00
8:35 PM,31.1,24.8,77,29.96,10.0,Calm,Calm,-,N/A,,Clear,0,2013-02-17 02:35:00
8:55 PM,29.1,24.3,82,29.96,10.0,Calm,Calm,-,N/A,,Clear,0,2013-02-17 02:55:00
9:15 PM,29.1,23.7,80,29.96,10.0,Calm,Calm,-,N/A,,Clear,0,2013-02-17 03:15:00
9:35 PM,28.8,24.1,83,29.96,10.0,Calm,Calm,-,N/A,,Clear,0,2013-02-17 03:35:00
9:55 PM,28.9,24.3,83,29.96,10.0,Calm,Calm,-,N/A,,Clear,0,2013-02-17 03:55:00
10:15 PM,27.3,21.9,80,29.96,10.0,Calm,Calm,-,N/A,,Clear,0,2013-02-17 04:15:00
10:35 PM,25.7,22.3,87,29.96,10.0,Calm,Calm,-,N/A,,Scattered Clouds,0,2013-02-17 04:35:00
10:55 PM,26.1,22.6,87,29.96,10.0,Calm,Calm,-,N/A,,Clear,0,2013-02-17 04:55:00
11:15 PM,25.9,22.5,87,29.95,10.0,Calm,Calm,-,N/A,,Clear,0,2013-02-17 05:15:00
11:35 PM,25.3,20.5,82,29.95,10.0,Calm,Calm,-,N/A,,Clear,0,2013-02-17 05:35:00
11:55 PM,23.0,20.1,89,29.95,10.0,Calm,Calm,-,N/A,,Clear,0,2013-02-17 05:55:00